Location: Ambatotampy
(18.8181°S, 47.6186°E)
Time: 23:50:22
(UTC+00:00)

GPS 2-12 Rocket1 - Pass Details

Date: 21 January 2021
Orbit: 586 x 651 km, 20.0° (Epoch: 24 February)

Event Time Altitude Azimuth Distance (km) Brightness Sun altitude
Exits shadow 01:33:29 19° 295° (WNW) 1,507 4.4 -12.8°
Maximum altitude 01:36:48 64° 13° (NNE) 705 3.3 -12.1°
Drops below altitude 10° 01:41:34 10° 94° (E) 2,040 6.9 -11.1°
Sets 01:43:59 0° 97° (E) 2,957 8.1 -10.6°
